• In Deutschland
  • Länderverzeichnis
  • Für 7 Tage
  • Wassertemperatur
  • Satellitenkarten
  • Wetterkarte
  • Widgets
  • user-avatar
    Anmelden

    Stündliche Wetter Reinbek

    Heute, 19 Februar, Montag

    Zeit Temperatur Niederschläge Wind Luftdruck Luftfeuchtigkeit
    00:00 -1°C° 0 mm 2 m/S 764 mmHg 87%
    01:00 -1°C° 0 mm 2 m/S 764 mmHg 87%
    02:00 -1°C° 0 mm 2 m/S 764 mmHg 87%
    03:00 -1°C° 0 mm 2 m/S 763 mmHg 86%
    04:00 -1°C° 0 mm 2 m/S 763 mmHg 86%
    05:00 -1°C° 0 mm 2 m/S 763 mmHg 86%
    06:00 -1°C° 0 mm 2 m/S 762 mmHg 85%
    07:00 -1°C° 0 mm 2 m/S 762 mmHg 85%
    08:00 -1°C° 0 mm 2 m/S 762 mmHg 81%
    09:00 +1°C° 0 mm 2 m/S 762 mmHg 78%
    10:00 +2°C° 0 mm 2 m/S 762 mmHg 74%
    11:00 +3°C° 0 mm 2 m/S 762 mmHg 70%
    12:00 +4°C° 0 mm 2 m/S 761 mmHg 66%
    13:00 +5°C° 0 mm 2 m/S 761 mmHg 62%
    14:00 +6°C° 0 mm 1 m/S 761 mmHg 64%
    15:00 +6°C° 0 mm 1 m/S 761 mmHg 65%
    16:00 +6°C° 0 mm 1 m/S 761 mmHg 67%
    17:00 +4°C° 0 mm 1 m/S 761 mmHg 70%
    18:00 +3°C° 0 mm 1 m/S 761 mmHg 73%
    19:00 +2°C° 0 mm 1 m/S 761 mmHg 76%
    20:00 +2°C° 0 mm 1 m/S 761 mmHg 78%
    21:00 +1°C° 0 mm 1 m/S 761 mmHg 79%
    22:00 +1°C° 0 mm 1 m/S 761 mmHg 81%
    23:00 +1°C° 0 mm 1 m/S 761 mmHg 82%

    Morgen, 20 Februar, Dienstag

    Zeit Temperatur Niederschläge Wind Luftdruck Luftfeuchtigkeit
    00:00 0°C° 0 mm 1 m/S 761 mmHg 84%
    01:00 -2°C° 0 mm 2 m/S 761 mmHg 85%
    02:00 -2°C° 0 mm 2 m/S 761 mmHg 86%
    03:00 -2°C° 0 mm 2 m/S 761 mmHg 87%
    04:00 -3°C° 0 mm 2 m/S 761 mmHg 88%
    05:00 -3°C° 0 mm 2 m/S 761 mmHg 88%
    06:00 -3°C° 0 mm 2 m/S 761 mmHg 88%
    07:00 -3°C° 0 mm 2 m/S 761 mmHg 88%
    08:00 -2°C° 0 mm 2 m/S 762 mmHg 81%
    09:00 -1°C° 0 mm 3 m/S 762 mmHg 75%
    10:00 0°C° 0 mm 3 m/S 762 mmHg 69%
    11:00 +1°C° 0 mm 3 m/S 762 mmHg 65%
    12:00 +2°C° 0 mm 3 m/S 762 mmHg 60%
    13:00 +3°C° 0 mm 4 m/S 762 mmHg 56%
    14:00 +3°C° 0 mm 3 m/S 763 mmHg 57%
    15:00 +3°C° 0 mm 3 m/S 763 mmHg 59%
    16:00 +3°C° 0 mm 3 m/S 763 mmHg 60%
    17:00 +1°C° 0 mm 3 m/S 763 mmHg 67%
    18:00 0°C° 0 mm 3 m/S 764 mmHg 74%
    19:00 -2°C° 0 mm 3 m/S 764 mmHg 81%
    20:00 -2°C° 0 mm 3 m/S 765 mmHg 83%
    21:00 -2°C° 0 mm 3 m/S 765 mmHg 84%
    22:00 -3°C° 0 mm 2 m/S 766 mmHg 86%
    23:00 -3°C° 0 mm 2 m/S 766 mmHg 87%

    übermorgen, 21 Februar, Mittwoch

    Zeit Temperatur Niederschläge Wind Luftdruck Luftfeuchtigkeit
    00:00 -3°C° 0 mm 2 m/S 766 mmHg 87%
    01:00 -3°C° 0 mm 2 m/S 766 mmHg 88%
    02:00 -3°C° 0 mm 2 m/S 766 mmHg 87%
    03:00 -3°C° 0 mm 2 m/S 766 mmHg 87%
    04:00 -3°C° 0 mm 2 m/S 766 mmHg 86%
    05:00 -3°C° 0 mm 2 m/S 767 mmHg 87%
    06:00 -3°C° 0 mm 2 m/S 767 mmHg 87%
    07:00 -1°C° 0 mm 1 m/S 767 mmHg 88%
    08:00 -2°C° 0 mm 2 m/S 767 mmHg 81%
    09:00 -1°C° 0 mm 2 m/S 767 mmHg 74%
    10:00 +1°C° 0 mm 2 m/S 767 mmHg 68%
    11:00 +2°C° 0 mm 2 m/S 767 mmHg 63%
    12:00 +2°C° 0 mm 2 m/S 767 mmHg 59%
    13:00 +3°C° 0 mm 2 m/S 766 mmHg 55%
    14:00 +3°C° 0 mm 2 m/S 766 mmHg 56%
    15:00 +3°C° 0 mm 2 m/S 766 mmHg 58%
    16:00 +3°C° 0 mm 2 m/S 766 mmHg 60%
    17:00 +2°C° 0 mm 2 m/S 766 mmHg 66%
    18:00 -1°C° 0 mm 2 m/S 766 mmHg 72%
    19:00 -2°C° 0 mm 2 m/S 766 mmHg 79%
    20:00 -2°C° 0 mm 2 m/S 766 mmHg 80%
    21:00 -3°C° 0 mm 2 m/S 766 mmHg 82%
    22:00 -3°C° 0 mm 2 m/S 766 mmHg 83%
    23:00 -3°C° 0 mm 2 m/S 766 mmHg 83%

    22 Februar, Donnerstag

    Zeit Temperatur Niederschläge Wind Luftdruck Luftfeuchtigkeit
    00:00 -3°C° 0 mm 2 m/S 766 mmHg 83%
    01:00 -4°C° 0 mm 2 m/S 766 mmHg 83%
    02:00 -4°C° 0 mm 2 m/S 766 mmHg 82%
    03:00 -4°C° 0 mm 2 m/S 766 mmHg 81%
    04:00 -2°C° 0 mm 1 m/S 766 mmHg 80%
    05:00 -2°C° 0 mm 1 m/S 766 mmHg 79%
    06:00 -2°C° 0 mm 1 m/S 766 mmHg 79%
    07:00 -2°C° 0 mm 1 m/S 766 mmHg 78%
    08:00 -3°C° 0 mm 2 m/S 766 mmHg 74%
    09:00 -1°C° 0 mm 2 m/S 766 mmHg 70%
    10:00 0°C° 0 mm 3 m/S 766 mmHg 66%
    11:00 0°C° 0 mm 3 m/S 766 mmHg 66%
    12:00 +1°C° 0 mm 3 m/S 765 mmHg 66%
    13:00 0°C° 0 mm 4 m/S 765 mmHg 66%
    14:00 0°C° 0 mm 4 m/S 765 mmHg 66%
    15:00 0°C° 0 mm 5 m/S 765 mmHg 65%
    16:00 0°C° 0 mm 5 m/S 764 mmHg 65%
    17:00 -1°C° 0 mm 5 m/S 765 mmHg 66%
    18:00 -2°C° 0 mm 5 m/S 765 mmHg 68%
    19:00 -3°C° 0 mm 4 m/S 765 mmHg 69%
    20:00 -3°C° 0 mm 4 m/S 765 mmHg 71%
    21:00 -4°C° 0 mm 4 m/S 765 mmHg 73%
    22:00 -4°C° 0 mm 4 m/S 765 mmHg 75%
    23:00 -5°C° 0 mm 4 m/S 765 mmHg 74%

    23 Februar, Freitag

    Zeit Temperatur Niederschläge Wind Luftdruck Luftfeuchtigkeit
    00:00 -5°C° 0 mm 4 m/S 765 mmHg 74%
    01:00 -5°C° 0 mm 4 m/S 765 mmHg 74%
    02:00 -5°C° 0 mm 4 m/S 765 mmHg 73%
    03:00 -5°C° 0 mm 4 m/S 764 mmHg 71%
    04:00 -5°C° 0 mm 4 m/S 764 mmHg 70%
    05:00 -5°C° 0 mm 4 m/S 764 mmHg 69%
    06:00 -5°C° 0 mm 4 m/S 764 mmHg 69%
    07:00 -5°C° 0 mm 4 m/S 764 mmHg 68%
    08:00 -5°C° 0 mm 4 m/S 764 mmHg 63%
    09:00 -5°C° 0 mm 5 m/S 764 mmHg 58%
    10:00 -4°C° 0 mm 5 m/S 764 mmHg 54%
    11:00 -4°C° 0 mm 5 m/S 764 mmHg 52%
    12:00 -4°C° 0 mm 5 m/S 764 mmHg 50%
    13:00 -2°C° 0 mm 5 m/S 764 mmHg 49%
    14:00 -4°C° 0 mm 5 m/S 764 mmHg 49%
    15:00 -4°C° 0 mm 5 m/S 764 mmHg 50%
    16:00 -4°C° 0 mm 5 m/S 763 mmHg 50%
    17:00 -4°C° 0 mm 4 m/S 763 mmHg 53%
    18:00 -5°C° 0 mm 4 m/S 763 mmHg 56%
    19:00 -5°C° 0 mm 3 m/S 764 mmHg 58%
    20:00 -6°C° 0 mm 3 m/S 764 mmHg 58%
    21:00 -6°C° 0 mm 3 m/S 764 mmHg 58%
    22:00 -6°C° 0 mm 3 m/S 764 mmHg 57%
    23:00 -6°C° 0 mm 3 m/S 764 mmHg 57%

    24 Februar, Samstag

    Zeit Temperatur Niederschläge Wind Luftdruck Luftfeuchtigkeit
    00:00 -6°C° 0 mm 3 m/S 764 mmHg 57%
    01:00 -7°C° 0 mm 4 m/S 764 mmHg 58%
    02:00 -8°C° 0 mm 4 m/S 764 mmHg 56%
    03:00 -8°C° 0 mm 4 m/S 764 mmHg 54%
    04:00 -8°C° 0 mm 4 m/S 764 mmHg 53%
    05:00 -8°C° 0 mm 4 m/S 765 mmHg 53%
    06:00 -8°C° 0 mm 4 m/S 765 mmHg 54%
    07:00 -9°C° 0 mm 4 m/S 765 mmHg 54%
    08:00 -8°C° 0 mm 4 m/S 765 mmHg 51%
    09:00 -8°C° 0 mm 5 m/S 765 mmHg 47%
    10:00 -7°C° 0 mm 5 m/S 766 mmHg 44%
    11:00 -7°C° 0 mm 5 m/S 765 mmHg 43%
    12:00 -7°C° 0 mm 5 m/S 765 mmHg 42%
    13:00 -6°C° 0 mm 5 m/S 765 mmHg 40%
    14:00 -7°C° 0 mm 5 m/S 765 mmHg 43%
    15:00 -7°C° 0 mm 5 m/S 765 mmHg 45%
    16:00 -8°C° 0 mm 6 m/S 764 mmHg 48%
    17:00 -8°C° 0 mm 5 m/S 764 mmHg 49%
    18:00 -8°C° 0 mm 5 m/S 764 mmHg 50%
    19:00 -10°C° 0 mm 5 m/S 764 mmHg 52%
    20:00 -9°C° 0 mm 4 m/S 764 mmHg 53%
    21:00 -9°C° 0 mm 4 m/S 764 mmHg 54%
    22:00 -8°C° 0 mm 3 m/S 764 mmHg 55%
    23:00 -8°C° 0 mm 3 m/S 764 mmHg 56%
    Mehr zeigen